Location: *
(17.3280°S, 114.7300°W)
Time: 07:12:43
(UTC+00:00)

MOS 1-B - Pass Details

Date: 05 August 2020
Orbit: 905 x 914 km, 99.4° (Epoch: 20 September)

Event Time Altitude Azimuth Distance (km) Brightness Sun altitude
Rises 13:04:19 0° 3° (N) 3,515 7.6 -14.3°
Reaches altitude 10° 13:06:45 10° 359° (N) 2,579 6.9 -13.7°
Maximum altitude 13:12:21 54° 282° (WNW) 1,088 4.5 -12.4°
Drops below altitude 10° 13:18:01 10° 205° (SSW) 2,598 6.4 -11.1°
Sets 13:20:30 0° 200° (SSW) 3,544 7.1 -10.5°
